Location: Newark
(32.8014°N, 52.8711°E)
Time: 20:50:37
(UTC+00:00)

Envisat - Pass Details

Date: 27 January 2020
Orbit: 764 x 766 km, 98.1° (Epoch: 22 February)

Event Time Altitude Azimuth Distance (km) Brightness Sun altitude
Rises 14:29:17 0° 170° (S) 3,216 6.3 -7.5°
Reaches altitude 10° 14:31:35 10° 171° (S) 2,294 5.6 -8.0°
Maximum altitude 14:36:38 78° 257° (WSW) 785 3.2 -9.0°
Drops below altitude 10° 14:41:44 10° 345° (NNW) 2,307 5.5 -10.0°
Sets 14:44:03 0° 347° (NNW) 3,236 6.2 -10.5°
